DW7733 Weather Reports


time (UTC)temp
C
wind
direction
speed
KPH
gust
KPH
rain 1hr
cm
rain 24hr
cm
rain mn
cm
humidity
%
barometer
mb
20260507123056 4 43 0.0 6.4 0.00 0.00 0.00 81 1012.9
20260507121555 3 53 1.6 9.7 0.00 0.00 0.00 80 1012.9
20260507120054 3 37 3.2 11.3 0.00 0.00 0.00 81 1012.8
20260507114610 3 40 1.6 11.3 0.00 0.00 0.00 80 1012.7
20260507113055 2 123 0.0 3.2 0.00 0.00 0.00 80 1012.4
20260507111551 2 134 0.0 1.6 0.00 0.00 0.00 82 1012.2
20260507110050 2 134 0.0 1.6 0.00 0.00 0.00 83 1012.0
20260507104555 1 143 0.0 3.2 0.00 0.00 0.00 84 1012.0
20260507103049 1 133 0.0 1.6 0.00 0.00 0.00 84 1011.9
20260507101550 1 136 0.0 1.6 0.00 0.00 0.00 85 1011.9
20260507100046 1 138 0.0 3.2 0.00 0.00 0.00 85 1011.9
20260507094544 1 138 0.0 1.6 0.00 0.00 0.00 84 1011.8
20260507093043 1 143 0.0 1.6 0.00 0.00 0.00 84 1012.0
20260507091544 1 143 0.0 1.6 0.00 0.00 0.00 83 1012.0
20260507090038 1 131 0.0 1.6 0.00 0.00 0.00 82 1011.9
20260507084535 2 134 0.0 1.6 0.00 0.00 0.00 80 1011.9
20260507083032 2 148 0.0 3.2 0.00 0.00 0.00 78 1012.0
20260507081530 2 136 0.0 1.6 0.00 0.00 0.00 76 1011.9
20260507080026 3 139 0.0 1.6 0.00 0.00 0.00 74 1011.9
20260507074525 3 148 0.0 3.2 0.00 0.00 0.00 73 1012.0
20260507073025 3 168 0.0 4.8 0.00 0.00 0.00 72 1012.0
20260507071521 3 134 0.0 6.4 0.00 0.00 0.00 70 1012.1
20260507070016 4 131 0.0 6.4 0.00 0.00 0.00 69 1012.5
20260507064513 5 63 0.0 8.0 0.00 0.00 0.00 67 1012.8
20260507063024 5 48 6.4 14.5 0.00 0.00 0.00 64 1012.8
20260507061510 5 49 8.0 14.5 0.00 0.00 0.00 66 1012.8
20260507060017 5 46 6.4 16.1 0.00 0.00 0.00 66 1012.7
20260507054503 6 57 4.8 22.5 0.00 0.00 0.00 67 1012.7
20260507053005 6 47 14.5 19.3 0.00 0.00 0.00 69 1012.7
20260507051501 6 37 9.7 12.9 0.00 0.00 0.00 70 1012.9
20260507044559 7 40 16.1 19.3 0.00 0.00 0.00 72 1012.8
20260507043056 7 25 16.1 17.7 0.00 0.00 0.00 74 1012.8
20260507041552 6 340 11.3 12.9 0.00 0.00 0.00 83 1012.7
20260507040048 5 81 0.0 1.6 0.00 0.00 0.00 74 1012.6
20260507034547 5 113 0.0 3.2 0.00 0.00 0.00 77 1012.7
20260507033047 5 127 0.0 0.0 0.00 0.00 0.00 78 1012.6
20260507031546 5 127 0.0 0.0 0.00 0.00 0.00 77 1012.7
20260507030046 5 127 0.0 0.0 0.00 0.00 0.00 78 1012.8
20260507024544 5 127 0.0 0.0 0.00 0.00 0.00 79 1012.7
20260507023043 5 127 0.0 0.0 0.00 0.00 0.00 78 1012.6
20260507021544 5 127 0.0 0.0 0.00 0.00 0.00 77 1012.7
20260507020044 5 127 0.0 0.0 0.00 0.00 0.00 81 1012.5
20260507014549 5 127 0.0 0.0 0.00 0.00 0.00 82 1012.7
20260507013050 5 127 0.0 0.0 0.00 0.00 0.00 79 1012.6
20260507011543 5 127 0.0 0.0 0.00 0.00 0.00 78 1012.6
20260507010053 5 127 0.0 0.0 0.00 0.00 0.00 79 1012.7
20260507004540 5 11 0.0 0.0 0.00 0.00 0.00 79 1012.8
20260507003039 5 12 0.0 0.0 0.00 0.00 0.00 78 1012.8
20260507001539 6 4 0.0 0.0 0.00 0.00 0.00 75 1012.6
20260507000038 6 13 0.0 0.0 0.00 0.00 0.00 72 1012.3
20260506234538 6 328 0.0 1.6 0.00 0.00 0.00 73 1012.4
20260506233054 6 340 0.0 3.2 0.00 0.00 0.00 71 1012.4
20260506231540 7 322 1.6 3.2 0.00 0.00 0.00 71 1012.6
20260506230036 6 316 0.0 1.6 0.00 0.00 0.00 71 1012.7
20260506224536 6 316 0.0 3.2 0.00 0.00 0.00 72 1012.8
20260506223035 6 15 0.0 4.8 0.00 0.00 0.00 72 1012.7
20260506221535 6 332 0.0 4.8 0.00 0.00 0.00 70 1012.8
20260506220033 6 16 3.2 6.4 0.00 0.00 0.00 72 1012.7
20260506214532 6 13 3.2 6.4 0.00 0.00 0.00 73 1012.6
20260506213031 6 4 6.4 11.3 0.00 0.00 0.00 72 1012.6
20260506211531 5 351 6.4 11.3 0.00 0.00 0.00 72 1012.4
20260506210035 5 20 9.7 14.5 0.00 0.00 0.00 73 1012.5
20260506204529 5 21 14.5 17.7 0.00 0.00 0.00 76 1012.4
20260506203028 5 16 16.1 17.7 0.00 0.00 0.00 76 1012.4
20260506201531 4 19 16.1 19.3 0.00 0.00 0.00 75 1012.5
20260506200037 4 19 12.9 17.7 0.00 0.00 0.00 74 1012.9
20260506194525 4 33 14.5 19.3 0.00 0.00 0.00 77 1012.7
20260506193028 3 33 16.1 17.7 0.00 0.00 0.00 76 1012.9
20260506191523 3 357 16.1 19.3 0.00 0.00 0.00 75 1012.8
20260506190023 3 354 12.9 17.7 0.00 0.00 0.00 77 1013.1
20260506184522 3 347 14.5 20.9 0.00 0.00 0.00 78 1013.4
20260506183021 3 340 12.9 20.9 0.00 0.00 0.00 80 1013.4
20260506181520 3 345 14.5 19.3 0.00 0.00 0.00 80 1013.3
20260506180019 3 350 12.9 19.3 0.00 0.00 0.00 83 1013.1
20260506174515 3 336 11.3 16.1 0.00 0.05 0.00 84 1013.0
20260506173021 3 335 14.5 20.9 0.00 0.05 0.00 83 1013.0
20260506171514 3 343 17.7 24.1 0.00 0.05 0.00 84 1012.9
20260506170012 3 354 17.7 22.5 0.00 0.05 0.00 84 1013.0
20260506164511 3 353 17.7 24.1 0.00 0.05 0.00 84 1012.7
20260506163008 3 345 20.9 25.7 0.00 0.05 0.00 84 1012.6
20260506161507 3 341 19.3 29.0 0.00 0.05 0.00 86 1012.4
20260506160013 3 349 22.5 27.4 0.00 0.05 0.00 85 1012.4
20260506154503 4 336 22.5 30.6 0.00 0.05 0.00 85 1012.3
20260506153000 4 340 24.1 30.6 0.00 0.05 0.00 83 1011.9
20260506151600 5 8 24.1 32.2 0.00 0.05 0.00 84 1011.7
20260506151500 5 350 24.1 32.2 0.00 0.05 0.00 82 1011.7
20260506150056 5 339 27.4 35.4 0.00 0.05 0.00 83 1011.4
20260506144657 5 338 27.4 37.0 0.00 0.05 0.00 82 1011.2
20260506143051 5 342 30.6 35.4 0.00 0.05 0.00 83 1010.8
20260506141605 4 358 30.6 37.0 0.00 0.05 0.00 84 1010.6
20260506140045 5 341 29.0 35.4 0.00 0.05 0.00 85 1010.3
20260506134542 5 12 32.2 38.6 0.00 0.05 0.00 79 1010.1
20260506133040 5 9 30.6 38.6 0.00 0.05 0.00 80 1010.0
20260506131540 5 1 30.6 37.0 0.00 0.05 0.00 80 1010.0
20260506130039 5 360 32.2 40.2 0.00 0.05 0.00 80 1009.8
20260506124539 5 18 33.8 41.8 0.00 0.05 0.00 79 1009.6